| time (UTC) | temp F | wind direction | speed MPH | gust MPH | rain 1hr in | rain 24hr in | rain mn in | humidity % | barometer mb |
| 20260509122009 | 52 | 231 | 2.0 | 2.0 | 0.00 | 0.00 | 0.00 | 80 | 1006.3 |
| 20260509121506 | 52 | 224 | 2.0 | 2.0 | 0.00 | 0.00 | 0.00 | 73 | 1006.3 |
| 20260509121004 | 52 | 243 | 1.0 | 2.0 | 0.00 | 0.00 | 0.00 | 75 | 1006.2 |
| 20260509120502 | 51 | 252 | 2.0 | 2.0 | 0.00 | 0.00 | 0.00 | 76 | 1006.2 |
| 20260509120000 | 51 | 259 | 1.0 | 2.0 | 0.00 | 0.00 | 0.00 | 77 | 1006.3 |
| 20260509115456 | 51 | 243 | 2.0 | 3.0 | 0.00 | 0.00 | 0.00 | 78 | 1006.2 |
| 20260509114954 | 50 | 249 | 3.0 | 5.0 | 0.00 | 0.00 | 0.00 | 78 | 1006.1 |
| 20260509114452 | 50 | 251 | 2.0 | 3.0 | 0.00 | 0.00 | 0.00 | 78 | 1006.0 |
| 20260509113951 | 50 | 280 | 1.0 | 1.0 | 0.00 | 0.00 | 0.00 | 80 | 1005.8 |
| 20260509113448 | 49 | 281 | 0.0 | 1.0 | 0.00 | 0.00 | 0.00 | 81 | 1005.8 |
| 20260509112945 | 49 | 275 | 0.0 | 0.0 | 0.00 | 0.00 | 0.00 | 83 | 1005.8 |
| 20260509112443 | 49 | 275 | 0.0 | 1.0 | 0.00 | 0.00 | 0.00 | 84 | 1005.8 |
| 20260509111939 | 49 | 274 | 1.0 | 2.0 | 0.00 | 0.00 | 0.00 | 84 | 1005.9 |
| 20260509111437 | 49 | 286 | 1.0 | 2.0 | 0.00 | 0.00 | 0.00 | 84 | 1006.0 |
| 20260509110934 | 49 | 299 | 2.0 | 3.0 | 0.00 | 0.00 | 0.00 | 85 | 1005.9 |
| 20260509110429 | 49 | 292 | 2.0 | 2.0 | 0.00 | 0.00 | 0.00 | 85 | 1005.9 |
| 20260509105928 | 49 | 270 | 1.0 | 2.0 | 0.00 | 0.00 | 0.00 | 86 | 1005.6 |
| 20260509105426 | 49 | 292 | 3.0 | 3.0 | 0.00 | 0.00 | 0.00 | 87 | 1005.8 |
| 20260509104923 | 49 | 298 | 2.0 | 6.0 | 0.00 | 0.00 | 0.00 | 87 | 1005.9 |
| 20260509104420 | 49 | 290 | 3.0 | 5.0 | 0.00 | 0.00 | 0.00 | 86 | 1005.7 |
| 20260509103917 | 49 | 293 | 3.0 | 3.0 | 0.00 | 0.00 | 0.00 | 86 | 1005.9 |
| 20260509103414 | 49 | 293 | 2.0 | 3.0 | 0.00 | 0.00 | 0.00 | 86 | 1005.7 |
| 20260509102913 | 49 | 301 | 1.0 | 2.0 | 0.00 | 0.00 | 0.00 | 87 | 1005.6 |
| 20260509102410 | 50 | 233 | 2.0 | 3.0 | 0.00 | 0.00 | 0.00 | 86 | 1005.2 |
| 20260509101905 | 50 | 275 | 1.0 | 2.0 | 0.00 | 0.00 | 0.00 | 85 | 1005.2 |
| 20260509101401 | 50 | 277 | 0.0 | 1.0 | 0.00 | 0.00 | 0.00 | 85 | 1005.3 |
| 20260509100900 | 50 | 277 | 0.0 | 0.0 | 0.00 | 0.00 | 0.00 | 85 | 1005.4 |
| 20260509100356 | 50 | 277 | 0.0 | 1.0 | 0.00 | 0.00 | 0.00 | 85 | 1005.4 |
| 20260509095853 | 51 | 277 | 0.0 | 1.0 | 0.00 | 0.00 | 0.00 | 85 | 1005.5 |
| 20260509095351 | 51 | 278 | 1.0 | 2.0 | 0.00 | 0.00 | 0.00 | 85 | 1005.7 |
| 20260509094847 | 51 | 276 | 0.0 | 1.0 | 0.00 | 0.00 | 0.00 | 86 | 1005.5 |
| 20260509094344 | 51 | 275 | 0.0 | 1.0 | 0.00 | 0.00 | 0.00 | 85 | 1005.5 |
| 20260509093842 | 51 | 275 | 1.0 | 1.0 | 0.00 | 0.00 | 0.00 | 85 | 1005.8 |
| 20260509093338 | 51 | 280 | 0.0 | 0.0 | 0.00 | 0.00 | 0.00 | 85 | 1005.4 |
| 20260509092837 | 51 | 281 | 0.0 | 1.0 | 0.00 | 0.00 | 0.00 | 85 | 1005.5 |
| 20260509092335 | 51 | 285 | 0.0 | 2.0 | 0.00 | 0.00 | 0.00 | 86 | 1005.4 |
| 20260509091832 | 52 | 284 | 1.0 | 2.0 | 0.00 | 0.00 | 0.00 | 85 | 1005.4 |
| 20260509091329 | 52 | 292 | 1.0 | 1.0 | 0.00 | 0.00 | 0.00 | 86 | 1005.3 |
| 20260509090826 | 52 | 286 | 0.0 | 1.0 | 0.00 | 0.00 | 0.00 | 86 | 1005.4 |
| 20260509090324 | 52 | 290 | 1.0 | 2.0 | 0.00 | 0.00 | 0.00 | 85 | 1005.4 |
| 20260509085821 | 52 | 281 | 1.0 | 3.0 | 0.00 | 0.00 | 0.00 | 85 | 1005.5 |
| 20260509085318 | 52 | 296 | 1.0 | 3.0 | 0.00 | 0.00 | 0.00 | 85 | 1005.3 |
| 20260509084814 | 53 | 291 | 2.0 | 5.0 | 0.00 | 0.00 | 0.00 | 85 | 1005.5 |
| 20260509084311 | 53 | 275 | 2.0 | 5.0 | 0.00 | 0.00 | 0.00 | 84 | 1005.5 |
| 20260509083809 | 53 | 303 | 1.0 | 3.0 | 0.00 | 0.00 | 0.00 | 85 | 1005.5 |
| 20260509083306 | 53 | 297 | 2.0 | 3.0 | 0.00 | 0.00 | 0.00 | 84 | 1005.4 |
| 20260509082803 | 54 | 335 | 0.0 | 2.0 | 0.00 | 0.00 | 0.00 | 83 | 1005.3 |
| 20260509082259 | 53 | 264 | 2.0 | 2.0 | 0.00 | 0.00 | 0.00 | 83 | 1005.3 |
| 20260509081756 | 53 | 284 | 4.0 | 5.0 | 0.00 | 0.00 | 0.00 | 84 | 1005.3 |
| 20260509081253 | 53 | 296 | 1.0 | 2.0 | 0.00 | 0.00 | 0.00 | 84 | 1005.4 |
| 20260509080752 | 54 | 281 | 0.0 | 2.0 | 0.00 | 0.00 | 0.00 | 83 | 1005.4 |
| 20260509080249 | 54 | 302 | 1.0 | 2.0 | 0.00 | 0.00 | 0.00 | 83 | 1005.4 |
| 20260509075747 | 54 | 271 | 1.0 | 2.0 | 0.00 | 0.00 | 0.00 | 83 | 1005.4 |
| 20260509075244 | 53 | 283 | 1.0 | 2.0 | 0.00 | 0.00 | 0.00 | 84 | 1005.3 |
| 20260509074741 | 53 | 275 | 0.0 | 2.0 | 0.00 | 0.00 | 0.00 | 84 | 1005.3 |
| 20260509074239 | 54 | 284 | 0.0 | 1.0 | 0.00 | 0.00 | 0.00 | 84 | 1005.4 |
| 20260509073735 | 54 | 280 | 0.0 | 2.0 | 0.00 | 0.00 | 0.00 | 84 | 1005.3 |
| 20260509073231 | 54 | 231 | 1.0 | 2.0 | 0.00 | 0.00 | 0.00 | 84 | 1005.4 |
| 20260509072728 | 53 | 245 | 2.0 | 2.0 | 0.00 | 0.00 | 0.00 | 84 | 1005.5 |
| 20260509072225 | 54 | 237 | 1.0 | 3.0 | 0.00 | 0.00 | 0.00 | 84 | 1005.5 |
| 20260509071721 | 55 | 228 | 2.0 | 3.0 | 0.00 | 0.00 | 0.00 | 82 | 1005.4 |
| 20260509071219 | 55 | 212 | 3.0 | 3.0 | 0.00 | 0.00 | 0.00 | 82 | 1005.6 |
| 20260509070715 | 55 | 244 | 2.0 | 3.0 | 0.00 | 0.00 | 0.00 | 82 | 1005.7 |
| 20260509070212 | 55 | 261 | 1.0 | 5.0 | 0.00 | 0.00 | 0.00 | 81 | 1005.6 |
| 20260509065708 | 56 | 270 | 1.0 | 3.0 | 0.00 | 0.00 | 0.00 | 81 | 1005.8 |
| 20260509065204 | 56 | 239 | 3.0 | 5.0 | 0.00 | 0.00 | 0.00 | 80 | 1005.8 |
| 20260509064701 | 56 | 243 | 1.0 | 6.0 | 0.00 | 0.00 | 0.00 | 80 | 1005.7 |
| 20260509064159 | 56 | 244 | 3.0 | 5.0 | 0.00 | 0.00 | 0.00 | 81 | 1005.7 |
| 20260509063656 | 56 | 289 | 1.0 | 3.0 | 0.00 | 0.00 | 0.00 | 81 | 1005.9 |
| 20260509063152 | 55 | 254 | 3.0 | 3.0 | 0.00 | 0.00 | 0.00 | 82 | 1006.0 |
| 20260509062649 | 56 | 238 | 2.0 | 3.0 | 0.00 | 0.00 | 0.00 | 82 | 1005.8 |
| 20260509062146 | 55 | 223 | 3.0 | 5.0 | 0.00 | 0.00 | 0.00 | 84 | 1005.9 |
| 20260509061643 | 55 | 270 | 1.0 | 3.0 | 0.00 | 0.00 | 0.00 | 84 | 1005.8 |
| 20260509061141 | 55 | 295 | 1.0 | 3.0 | 0.00 | 0.00 | 0.00 | 84 | 1005.9 |
| 20260509060638 | 55 | 223 | 2.0 | 3.0 | 0.00 | 0.00 | 0.00 | 85 | 1005.6 |
| 20260509060134 | 54 | 264 | 2.0 | 2.0 | 0.00 | 0.00 | 0.00 | 86 | 1005.7 |
| 20260509055630 | 54 | 226 | 3.0 | 5.0 | 0.00 | 0.00 | 0.00 | 86 | 1005.6 |
| 20260509055126 | 55 | 237 | 2.0 | 2.0 | 0.00 | 0.00 | 0.00 | 86 | 1005.5 |
| 20260509054623 | 55 | 250 | 1.0 | 2.0 | 0.00 | 0.00 | 0.00 | 86 | 1005.6 |
| 20260509054120 | 55 | 272 | 1.0 | 2.0 | 0.00 | 0.00 | 0.00 | 86 | 1005.5 |
| 20260509053619 | 55 | 226 | 2.0 | 3.0 | 0.00 | 0.00 | 0.00 | 86 | 1005.6 |
| 20260509053115 | 55 | 233 | 2.0 | 3.0 | 0.00 | 0.00 | 0.00 | 86 | 1005.5 |
| 20260509052613 | 55 | 225 | 3.0 | 5.0 | 0.00 | 0.00 | 0.00 | 85 | 1005.4 |
| 20260509052111 | 56 | 215 | 4.0 | 5.0 | 0.00 | 0.00 | 0.00 | 85 | 1005.5 |
| 20260509051608 | 56 | 225 | 3.0 | 3.0 | 0.00 | 0.00 | 0.00 | 84 | 1005.7 |
| 20260509051105 | 56 | 216 | 3.0 | 5.0 | 0.00 | 0.00 | 0.00 | 84 | 1005.4 |
| 20260509050602 | 56 | 260 | 3.0 | 5.0 | 0.00 | 0.00 | 0.00 | 84 | 1005.7 |
| 20260509050058 | 57 | 237 | 3.0 | 5.0 | 0.00 | 0.00 | 0.00 | 83 | 1005.7 |
| 20260509045556 | 57 | 214 | 3.0 | 6.0 | 0.00 | 0.00 | 0.00 | 83 | 1005.7 |
| 20260509045053 | 57 | 220 | 5.0 | 6.0 | 0.00 | 0.00 | 0.00 | 82 | 1005.7 |
| 20260509044550 | 58 | 219 | 4.0 | 7.0 | 0.00 | 0.00 | 0.00 | 81 | 1005.7 |
| 20260509044047 | 58 | 209 | 4.0 | 7.0 | 0.00 | 0.00 | 0.00 | 81 | 1005.6 |
| 20260509043544 | 58 | 188 | 5.0 | 8.0 | 0.00 | 0.00 | 0.00 | 80 | 1005.5 |
| 20260509043039 | 58 | 199 | 5.0 | 8.0 | 0.00 | 0.00 | 0.00 | 80 | 1005.5 |
| 20260509042536 | 59 | 212 | 5.0 | 7.0 | 0.00 | 0.00 | 0.00 | 79 | 1005.5 |
| 20260509042032 | 59 | 209 | 5.0 | 7.0 | 0.00 | 0.00 | 0.00 | 79 | 1005.6 |
| 20260509041529 | 59 | 212 | 4.0 | 9.0 | 0.00 | 0.00 | 0.00 | 79 | 1005.6 |
| 20260509041027 | 59 | 214 | 5.0 | 8.0 | 0.00 | 0.00 | 0.00 | 78 | 1005.8 |
| 20260509040525 | 59 | 220 | 6.0 | 9.0 | 0.00 | 0.00 | 0.00 | 78 | 1005.8 |
| 20260509040022 | 59 | 218 | 5.0 | 8.0 | 0.00 | 0.00 | 0.00 | 78 | 1005.7 |
| 20260509035518 | 60 | 206 | 5.0 | 7.0 | 0.00 | 0.00 | 0.00 | 77 | 1005.9 |
| 20260509035014 | 60 | 209 | 6.0 | 8.0 | 0.00 | 0.00 | 0.00 | 77 | 1005.7 |
| 20260509034513 | 60 | 223 | 5.0 | 7.0 | 0.00 | 0.00 | 0.00 | 76 | 1005.9 |
| 20260509034009 | 60 | 228 | 4.0 | 8.0 | 0.00 | 0.00 | 0.00 | 76 | 1005.8 |
| 20260509033506 | 60 | 215 | 6.0 | 7.0 | 0.00 | 0.00 | 0.00 | 75 | 1005.7 |
| 20260509033003 | 61 | 229 | 5.0 | 9.0 | 0.00 | 0.00 | 0.00 | 75 | 1005.9 |
| 20260509032500 | 61 | 218 | 6.0 | 8.0 | 0.00 | 0.00 | 0.00 | 74 | 1005.9 |
| 20260509031958 | 61 | 219 | 7.0 | 8.0 | 0.00 | 0.00 | 0.00 | 73 | 1005.9 |
| 20260509031455 | 62 | 215 | 7.0 | 8.0 | 0.00 | 0.00 | 0.00 | 72 | 1005.8 |
| 20260509030952 | 62 | 211 | 7.0 | 9.0 | 0.00 | 0.00 | 0.00 | 72 | 1005.9 |
| 20260509030450 | 63 | 197 | 5.0 | 8.0 | 0.00 | 0.00 | 0.00 | 70 | 1005.8 |
| 20260509025947 | 63 | 201 | 5.0 | 7.0 | 0.00 | 0.00 | 0.00 | 71 | 1006.0 |
| 20260509025442 | 63 | 248 | 1.0 | 3.0 | 0.00 | 0.00 | 0.00 | 70 | 1006.3 |
| 20260509024938 | 63 | 210 | 5.0 | 7.0 | 0.00 | 0.00 | 0.00 | 70 | 1005.9 |
| 20260509024434 | 63 | 207 | 5.0 | 8.0 | 0.00 | 0.00 | 0.00 | 69 | 1006.1 |
| 20260509023931 | 63 | 224 | 7.0 | 9.0 | 0.00 | 0.00 | 0.00 | 68 | 1005.7 |
| 20260509023428 | 64 | 237 | 7.0 | 10.0 | 0.00 | 0.00 | 0.00 | 67 | 1005.6 |
| 20260509022925 | 64 | 233 | 5.0 | 8.0 | 0.00 | 0.00 | 0.00 | 66 | 1005.6 |
| 20260509022422 | 64 | 222 | 8.0 | 13.0 | 0.00 | 0.00 | 0.00 | 65 | 1005.3 |
| 20260509021920 | 64 | 210 | 6.0 | 8.0 | 0.00 | 0.00 | 0.00 | 66 | 1005.5 |
| 20260509021416 | 65 | 215 | 8.0 | 10.0 | 0.00 | 0.00 | 0.00 | 65 | 1005.3 |
| 20260509020914 | 65 | 217 | 9.0 | 13.0 | 0.00 | 0.00 | 0.00 | 64 | 1005.1 |
| 20260509020412 | 65 | 214 | 5.0 | 8.0 | 0.00 | 0.00 | 0.00 | 61 | 1004.9 |
| 20260509015909 | 65 | 232 | 9.0 | 13.0 | 0.00 | 0.00 | 0.00 | 61 | 1005.2 |
| 20260509015408 | 66 | 233 | 4.0 | 7.0 | 0.00 | 0.00 | 0.00 | 58 | 1005.2 |
| 20260509014903 | 66 | 240 | 5.0 | 11.0 | 0.00 | 0.00 | 0.00 | 57 | 1005.4 |
| 20260509014400 | 66 | 240 | 7.0 | 10.0 | 0.00 | 0.00 | 0.00 | 55 | 1006.0 |
| 20260509013857 | 66 | 217 | 4.0 | 6.0 | 0.00 | 0.00 | 0.00 | 54 | 1005.7 |
| 20260509013354 | 66 | 232 | 3.0 | 6.0 | 0.00 | 0.00 | 0.00 | 53 | 1005.4 |
| 20260509012849 | 67 | 247 | 4.0 | 6.0 | 0.00 | 0.00 | 0.00 | 52 | 1005.2 |
| 20260509012346 | 67 | 225 | 4.0 | 6.0 | 0.00 | 0.00 | 0.00 | 51 | 1004.9 |
| 20260509011844 | 67 | 225 | 3.0 | 5.0 | 0.00 | 0.00 | 0.00 | 52 | 1004.7 |
| 20260509011341 | 67 | 272 | 1.0 | 1.0 | 0.00 | 0.00 | 0.00 | 53 | 1004.7 |
| 20260509010839 | 67 | 229 | 2.0 | 5.0 | 0.00 | 0.00 | 0.00 | 52 | 1004.7 |
| 20260509010336 | 68 | 228 | 5.0 | 6.0 | 0.00 | 0.00 | 0.00 | 51 | 1004.8 |
| 20260509005827 | 68 | 226 | 5.0 | 7.0 | 0.00 | 0.00 | 0.00 | 50 | 1004.7 |
| 20260509005325 | 68 | 234 | 2.0 | 6.0 | 0.00 | 0.00 | 0.00 | 51 | 1004.9 |
| 20260509004820 | 69 | 241 | 4.0 | 5.0 | 0.00 | 0.00 | 0.00 | 49 | 1004.8 |
| 20260509004316 | 69 | 228 | 6.0 | 8.0 | 0.00 | 0.00 | 0.00 | 48 | 1004.7 |
| 20260509003814 | 69 | 212 | 5.0 | 8.0 | 0.00 | 0.00 | 0.00 | 48 | 1004.8 |
| 20260509003311 | 69 | 228 | 3.0 | 6.0 | 0.00 | 0.00 | 0.00 | 48 | 1004.6 |
| 20260509002803 | 70 | 220 | 5.0 | 8.0 | 0.00 | 0.00 | 0.00 | 48 | 1004.6 |
| 20260509002301 | 70 | 209 | 7.0 | 9.0 | 0.00 | 0.00 | 0.00 | 46 | 1004.5 |
| 20260509001758 | 70 | 231 | 6.0 | 7.0 | 0.00 | 0.00 | 0.00 | 47 | 1004.5 |
| 20260509001254 | 70 | 224 | 4.0 | 8.0 | 0.00 | 0.00 | 0.00 | 46 | 1004.4 |
| 20260509000752 | 70 | 152 | 3.0 | 11.0 | 0.00 | 0.00 | 0.00 | 46 | 1004.4 |
| 20260509000248 | 71 | 232 | 6.0 | 10.0 | 0.00 | 0.00 | 0.00 | 45 | 1004.6 |
| 20260508235746 | 71 | 211 | 5.0 | 9.0 | 0.00 | 0.00 | 0.00 | 44 | 1004.5 |
| 20260508235242 | 72 | 206 | 6.0 | 8.0 | 0.00 | 0.00 | 0.00 | 40 | 1004.5 |
| 20260508234740 | 73 | 217 | 6.0 | 13.0 | 0.00 | 0.00 | 0.00 | 38 | 1004.6 |
| 20260508234235 | 73 | 217 | 5.0 | 11.0 | 0.00 | 0.00 | 0.00 | 37 | 1004.6 |
| 20260508233735 | 73 | 213 | 7.0 | 9.0 | 0.00 | 0.00 | 0.00 | 34 | 1004.6 |
| 20260508233232 | 74 | 220 | 5.0 | 7.0 | 0.00 | 0.00 | 0.00 | 36 | 1004.7 |
| 20260508232729 | 74 | 255 | 4.0 | 7.0 | 0.00 | 0.00 | 0.00 | 34 | 1004.7 |
| 20260508232226 | 74 | 206 | 4.0 | 7.0 | 0.00 | 0.00 | 0.00 | 35 | 1004.9 |
| 20260508231724 | 73 | 261 | 3.0 | 7.0 | 0.00 | 0.00 | 0.00 | 33 | 1005.0 |
| 20260508231220 | 73 | 251 | 2.0 | 5.0 | 0.00 | 0.00 | 0.00 | 37 | 1004.8 |
| 20260508230717 | 73 | 242 | 4.0 | 7.0 | 0.00 | 0.00 | 0.00 | 38 | 1005.0 |
| 20260508230213 | 74 | 230 | 3.0 | 7.0 | 0.00 | 0.00 | 0.00 | 36 | 1004.8 |
| 20260508225712 | 73 | 235 | 4.0 | 9.0 | 0.00 | 0.00 | 0.00 | 35 | 1005.0 |
| 20260508225207 | 75 | 206 | 6.0 | 9.0 | 0.00 | 0.00 | 0.00 | 35 | 1005.0 |
| 20260508224706 | 75 | 269 | 2.0 | 5.0 | 0.00 | 0.00 | 0.00 | 37 | 1005.1 |
| 20260508224203 | 74 | 175 | 5.0 | 7.0 | 0.00 | 0.00 | 0.00 | 37 | 1005.2 |
| 20260508223700 | 74 | 216 | 3.0 | 9.0 | 0.00 | 0.00 | 0.00 | 37 | 1005.1 |
| 20260508223157 | 73 | 221 | 4.0 | 7.0 | 0.00 | 0.00 | 0.00 | 37 | 1005.1 |
| 20260508222655 | 73 | 214 | 5.0 | 7.0 | 0.00 | 0.00 | 0.00 | 36 | 1005.2 |
| 20260508222152 | 74 | 213 | 5.0 | 8.0 | 0.00 | 0.00 | 0.00 | 37 | 1005.1 |
| 20260508221648 | 72 | 217 | 4.0 | 7.0 | 0.00 | 0.00 | 0.00 | 36 | 1005.2 |
| 20260508221144 | 74 | 232 | 4.0 | 6.0 | 0.00 | 0.00 | 0.00 | 36 | 1005.3 |
| 20260508220641 | 74 | 259 | 2.0 | 7.0 | 0.00 | 0.00 | 0.00 | 36 | 1005.3 |
| 20260508220137 | 73 | 228 | 5.0 | 7.0 | 0.00 | 0.00 | 0.00 | 34 | 1005.2 |
| 20260508215634 | 74 | 206 | 8.0 | 9.0 | 0.00 | 0.00 | 0.00 | 33 | 1005.3 |
| 20260508215131 | 74 | 208 | 6.0 | 9.0 | 0.00 | 0.00 | 0.00 | 36 | 1005.5 |
| 20260508214628 | 73 | 245 | 4.0 | 7.0 | 0.00 | 0.00 | 0.00 | 35 | 1005.4 |
| 20260508214125 | 74 | 220 | 5.0 | 6.0 | 0.00 | 0.00 | 0.00 | 35 | 1005.5 |
| 20260508213622 | 75 | 220 | 6.0 | 10.0 | 0.00 | 0.00 | 0.00 | 34 | 1005.6 |
| 20260508213117 | 75 | 224 | 5.0 | 9.0 | 0.00 | 0.00 | 0.00 | 35 | 1005.5 |
| 20260508212614 | 74 | 222 | 5.0 | 7.0 | 0.00 | 0.00 | 0.00 | 33 | 1005.7 |
| 20260508212111 | 74 | 222 | 5.0 | 7.0 | 0.00 | 0.00 | 0.00 | 33 | 1005.7 |
| 20260508211606 | 75 | 274 | 3.0 | 5.0 | 0.00 | 0.00 | 0.00 | 32 | 1005.8 |
| 20260508211103 | 74 | 321 | 0.0 | 6.0 | 0.00 | 0.00 | 0.00 | 32 | 1005.7 |
| 20260508210559 | 75 | 196 | 2.0 | 3.0 | 0.00 | 0.00 | 0.00 | 28 | 1005.7 |
| 20260508210057 | 73 | 285 | 0.0 | 1.0 | 0.00 | 0.00 | 0.00 | 29 | 1005.7 |
| 20260508205554 | 73 | 280 | 3.0 | 3.0 | 0.00 | 0.00 | 0.00 | 28 | 1005.9 |
| 20260508205050 | 74 | 290 | 7.0 | 8.0 | 0.00 | 0.00 | 0.00 | 28 | 1005.9 |
| 20260508204547 | 74 | 303 | 3.0 | 9.0 | 0.00 | 0.00 | 0.00 | 28 | 1006.0 |
| 20260508204042 | 76 | 313 | 4.0 | 9.0 | 0.00 | 0.00 | 0.00 | 27 | 1006.1 |
| 20260508203539 | 76 | 354 | 2.0 | 2.0 | 0.00 | 0.00 | 0.00 | 28 | 1006.0 |
| 20260508203035 | 75 | 280 | 2.0 | 5.0 | 0.00 | 0.00 | 0.00 | 29 | 1006.2 |
| 20260508202532 | 74 | 249 | 4.0 | 9.0 | 0.00 | 0.00 | 0.00 | 27 | 1006.2 |
| 20260508202029 | 76 | 252 | 4.0 | 6.0 | 0.00 | 0.00 | 0.00 | 27 | 1006.6 |
| 20260508201525 | 76 | 281 | 1.0 | 3.0 | 0.00 | 0.00 | 0.00 | 31 | 1006.4 |
| 20260508201022 | 75 | 257 | 2.0 | 8.0 | 0.00 | 0.00 | 0.00 | 30 | 1006.6 |
| 20260508200519 | 75 | 259 | 1.0 | 7.0 | 0.00 | 0.00 | 0.00 | 29 | 1006.6 |
| 20260508200015 | 73 | 40 | 3.0 | 6.0 | 0.00 | 0.00 | 0.00 | 29 | 1006.4 |
| 20260508195512 | 75 | 14 | 2.0 | 5.0 | 0.00 | 0.00 | 0.00 | 30 | 1006.6 |
| 20260508195008 | 77 | 280 | 2.0 | 7.0 | 0.00 | 0.00 | 0.00 | 28 | 1006.7 |
| 20260508194505 | 75 | 270 | 1.0 | 2.0 | 0.00 | 0.00 | 0.00 | 30 | 1006.7 |
| 20260508194002 | 74 | 269 | 1.0 | 3.0 | 0.00 | 0.00 | 0.00 | 29 | 1006.9 |
| 20260508193459 | 73 | 290 | 2.0 | 7.0 | 0.00 | 0.00 | 0.00 | 28 | 1007.0 |
| 20260508192955 | 73 | 297 | 3.0 | 5.0 | 0.00 | 0.00 | 0.00 | 30 | 1007.0 |
| 20260508192452 | 73 | 333 | 6.0 | 14.0 | 0.00 | 0.00 | 0.00 | 30 | 1007.1 |
| 20260508191949 | 75 | 11 | 3.0 | 5.0 | 0.00 | 0.00 | 0.00 | 30 | 1007.1 |
| 20260508191446 | 73 | 285 | 3.0 | 6.0 | 0.00 | 0.00 | 0.00 | 29 | 1007.1 |
| 20260508190942 | 73 | 256 | 4.0 | 6.0 | 0.00 | 0.00 | 0.00 | 30 | 1007.2 |
| 20260508190440 | 73 | 230 | 4.0 | 8.0 | 0.00 | 0.00 | 0.00 | 30 | 1007.3 |
| 20260508185936 | 73 | 210 | 4.0 | 5.0 | 0.00 | 0.00 | 0.00 | 30 | 1007.2 |
| 20260508185434 | 73 | 29 | 2.0 | 2.0 | 0.00 | 0.00 | 0.00 | 28 | 1007.4 |
| 20260508184931 | 73 | 295 | 4.0 | 6.0 | 0.00 | 0.00 | 0.00 | 29 | 1007.3 |
| 20260508184428 | 73 | 305 | 4.0 | 7.0 | 0.00 | 0.00 | 0.00 | 29 | 1007.6 |
| 20260508183924 | 73 | 345 | 3.0 | 3.0 | 0.00 | 0.00 | 0.00 | 29 | 1007.7 |
| 20260508183421 | 72 | 329 | 2.0 | 5.0 | 0.00 | 0.00 | 0.00 | 31 | 1007.6 |
| 20260508182916 | 72 | 293 | 3.0 | 5.0 | 0.00 | 0.00 | 0.00 | 29 | 1007.7 |
| 20260508182414 | 71 | 8 | 6.0 | 9.0 | 0.00 | 0.00 | 0.00 | 30 | 1007.7 |
| 20260508181909 | 72 | 318 | 3.0 | 7.0 | 0.00 | 0.00 | 0.00 | 31 | 1007.7 |
| 20260508181406 | 73 | 255 | 1.0 | 5.0 | 0.00 | 0.00 | 0.00 | 30 | 1007.7 |
| 20260508180903 | 71 | 238 | 2.0 | 2.0 | 0.00 | 0.00 | 0.00 | 32 | 1007.7 |
| 20260508180400 | 72 | 322 | 3.0 | 6.0 | 0.00 | 0.00 | 0.00 | 31 | 1007.9 |
| 20260508175856 | 71 | 359 | 6.0 | 6.0 | 0.00 | 0.00 | 0.00 | 30 | 1007.8 |
| 20260508175353 | 71 | 4 | 3.0 | 8.0 | 0.00 | 0.00 | 0.00 | 31 | 1007.9 |
| 20260508174851 | 73 | 277 | 1.0 | 2.0 | 0.00 | 0.00 | 0.00 | 28 | 1007.9 |
| 20260508174348 | 72 | 226 | 3.0 | 3.0 | 0.00 | 0.00 | 0.00 | 35 | 1007.8 |
| 20260508173839 | 70 | 259 | 1.0 | 3.0 | 0.00 | 0.00 | 0.00 | 31 | 1007.9 |
| 20260508173337 | 70 | 355 | 3.0 | 7.0 | 0.00 | 0.00 | 0.00 | 30 | 1008.1 |
| 20260508172832 | 70 | 358 | 3.0 | 7.0 | 0.00 | 0.00 | 0.00 | 33 | 1008.1 |
| 20260508172330 | 71 | 282 | 0.0 | 3.0 | 0.00 | 0.00 | 0.00 | 34 | 1008.1 |
| 20260508171826 | 71 | 319 | 0.0 | 1.0 | 0.00 | 0.00 | 0.00 | 31 | 1008.3 |
| 20260508171322 | 71 | 343 | 4.0 | 6.0 | 0.00 | 0.00 | 0.00 | 33 | 1008.5 |
| 20260508170819 | 72 | 285 | 1.0 | 3.0 | 0.00 | 0.00 | 0.00 | 35 | 1008.4 |
| 20260508170317 | 72 | 293 | 0.0 | 1.0 | 0.00 | 0.00 | 0.00 | 36 | 1008.5 |
| 20260508165814 | 71 | 301 | 0.0 | 3.0 | 0.00 | 0.00 | 0.00 | 34 | 1008.6 |
| 20260508165311 | 71 | 303 | 2.0 | 5.0 | 0.00 | 0.00 | 0.00 | 36 | 1008.4 |
| 20260508164807 | 71 | 290 | 0.0 | 1.0 | 0.00 | 0.00 | 0.00 | 33 | 1008.5 |
| 20260508164304 | 71 | 253 | 2.0 | 2.0 | 0.00 | 0.00 | 0.00 | 34 | 1008.4 |
| 20260508163802 | 69 | 252 | 1.0 | 3.0 | 0.00 | 0.00 | 0.00 | 34 | 1008.6 |
| 20260508163259 | 68 | 329 | 0.0 | 3.0 | 0.00 | 0.00 | 0.00 | 41 | 1008.7 |
| 20260508162755 | 68 | 263 | 3.0 | 6.0 | 0.00 | 0.00 | 0.00 | 39 | 1008.5 |
| 20260508162252 | 69 | 239 | 1.0 | 3.0 | 0.00 | 0.00 | 0.00 | 46 | 1008.7 |
| 20260508161749 | 68 | 144 | 3.0 | 7.0 | 0.00 | 0.00 | 0.00 | 46 | 1008.9 |
| 20260508161246 | 68 | 217 | 4.0 | 6.0 | 0.00 | 0.00 | 0.00 | 47 | 1008.8 |
| 20260508160744 | 66 | 138 | 4.0 | 6.0 | 0.00 | 0.00 | 0.00 | 49 | 1008.8 |
| 20260508160242 | 67 | 262 | 2.0 | 3.0 | 0.00 | 0.00 | 0.00 | 50 | 1008.9 |
| 20260508155738 | 66 | 261 | 0.0 | 3.0 | 0.00 | 0.00 | 0.00 | 49 | 1009.1 |
| 20260508155235 | 67 | 169 | 2.0 | 5.0 | 0.00 | 0.00 | 0.00 | 50 | 1009.1 |
| 20260508154726 | 66 | 215 | 2.0 | 3.0 | 0.00 | 0.00 | 0.00 | 54 | 1008.9 |
| 20260508154224 | 66 | 228 | 2.0 | 3.0 | 0.00 | 0.00 | 0.00 | 54 | 1008.9 |
| 20260508153720 | 65 | 232 | 1.0 | 3.0 | 0.00 | 0.00 | 0.00 | 57 | 1009.0 |
| 20260508153217 | 66 | 184 | 3.0 | 3.0 | 0.00 | 0.00 | 0.00 | 55 | 1009.0 |
| 20260508152714 | 64 | 217 | 0.0 | 2.0 | 0.00 | 0.00 | 0.00 | 58 | 1009.1 |
| 20260508152209 | 64 | 169 | 2.0 | 3.0 | 0.00 | 0.00 | 0.00 | 59 | 1009.0 |
| 20260508151706 | 64 | 236 | 2.0 | 2.0 | 0.00 | 0.00 | 0.00 | 60 | 1009.3 |
| 20260508151203 | 63 | 207 | 3.0 | 5.0 | 0.00 | 0.00 | 0.00 | 59 | 1009.1 |
| 20260508150700 | 64 | 296 | 0.0 | 1.0 | 0.00 | 0.00 | 0.00 | 59 | 1009.2 |
| 20260508150157 | 62 | 92 | 1.0 | 3.0 | 0.00 | 0.00 | 0.00 | 61 | 1009.3 |
| 20260508145652 | 62 | 246 | 1.0 | 3.0 | 0.00 | 0.00 | 0.00 | 61 | 1009.4 |
| 20260508145149 | 61 | 206 | 2.0 | 2.0 | 0.00 | 0.00 | 0.00 | 62 | 1009.3 |
| 20260508144646 | 59 | 345 | 1.0 | 2.0 | 0.00 | 0.00 | 0.00 | 65 | 1009.3 |
| 20260508144144 | 58 | 177 | 3.0 | 5.0 | 0.00 | 0.00 | 0.00 | 67 | 1009.4 |
| 20260508143641 | 57 | 208 | 1.0 | 3.0 | 0.00 | 0.00 | 0.00 | 67 | 1009.4 |
| 20260508143138 | 57 | 225 | 3.0 | 6.0 | 0.00 | 0.00 | 0.00 | 68 | 1009.5 |
| 20260508142634 | 55 | 242 | 1.0 | 2.0 | 0.00 | 0.00 | 0.00 | 70 | 1009.3 |
| 20260508142131 | 55 | 243 | 2.0 | 3.0 | 0.00 | 0.00 | 0.00 | 70 | 1009.5 |
| 20260508141628 | 55 | 213 | 2.0 | 3.0 | 0.00 | 0.00 | 0.00 | 71 | 1009.6 |
| 20260508141125 | 54 | 210 | 2.0 | 3.0 | 0.00 | 0.00 | 0.00 | 71 | 1009.7 |
| 20260508140623 | 53 | 222 | 3.0 | 5.0 | 0.00 | 0.00 | 0.00 | 70 | 1009.7 |
| 20260508140119 | 53 | 243 | 2.0 | 5.0 | 0.00 | 0.00 | 0.00 | 73 | 1009.6 |
| 20260508135614 | 53 | 247 | 2.0 | 2.0 | 0.00 | 0.00 | 0.00 | 71 | 1009.6 |
| 20260508135111 | 52 | 252 | 1.0 | 1.0 | 0.00 | 0.00 | 0.00 | 71 | 1009.5 |
| 20260508134608 | 52 | 253 | 0.0 | 2.0 | 0.00 | 0.00 | 0.00 | 72 | 1009.5 |
| 20260508134105 | 52 | 254 | 0.0 | 1.0 | 0.00 | 0.00 | 0.00 | 73 | 1009.5 |
| 20260508133601 | 51 | 253 | 0.0 | 2.0 | 0.00 | 0.00 | 0.00 | 72 | 1009.5 |
| 20260508133058 | 51 | 253 | 1.0 | 1.0 | 0.00 | 0.00 | 0.00 | 73 | 1009.8 |
| 20260508132551 | 51 | 244 | 2.0 | 3.0 | 0.00 | 0.00 | 0.00 | 72 | 1009.6 |
| 20260508132047 | 51 | 258 | 0.0 | 2.0 | 0.00 | 0.00 | 0.00 | 71 | 1009.7 |
| 20260508131542 | 51 | 227 | 2.0 | 2.0 | 0.00 | 0.00 | 0.00 | 70 | 1009.5 |
| 20260508131040 | 51 | 235 | 1.0 | 2.0 | 0.00 | 0.00 | 0.00 | 69 | 1009.4 |
| 20260508130537 | 51 | 196 | 1.0 | 3.0 | 0.00 | 0.00 | 0.00 | 69 | 1009.2 |
| 20260508130033 | 51 | 162 | 3.0 | 5.0 | 0.00 | 0.00 | 0.00 | 68 | 1009.1 |
| 20260508125529 | 51 | 299 | 1.0 | 2.0 | 0.00 | 0.00 | 0.00 | 68 | 1008.9 |
| 20260508125027 | 50 | 355 | 0.0 | 0.0 | 0.00 | 0.00 | 0.00 | 69 | 1008.9 |
| 20260508124524 | 50 | 14 | 0.0 | 1.0 | 0.00 | 0.00 | 0.00 | 72 | 1008.9 |
| 20260508124021 | 49 | 40 | 0.0 | 1.0 | 0.00 | 0.00 | 0.00 | 71 | 1008.8 |
| 20260508123520 | 48 | 39 | 0.0 | 1.0 | 0.00 | 0.00 | 0.00 | 75 | 1008.7 |
| 20260508123016 | 48 | 250 | 0.0 | 0.0 | 0.00 | 0.00 | 0.00 | 76 | 1009.0 |
| 20260508122513 | 48 | 250 | 0.0 | 1.0 | 0.00 | 0.00 | 0.00 | 75 | 1009.1 |